Weather in Fominskoe

Russia / Vologda Oblast     58°58′58″N   39°03′25″E
temp.,
°C
wind,
m/s
gust,
m/s
humid.,
%
clouds,
%
prec.,
mm/h
press.,
hPa
HPBL,
m
8 may, sat
sat800:00+3s29887 0.0 1011170
03:00+3sse2893100 0.0 1011158
06:00+5se31079100 0.0 1011298
09:00+10sse51260100 0.0 10101125
12:00+11sse61563100 0.1 10081792
15:00+8sse61491100 1.9 10081505
18:00+7sse4995100 5.4 10071180
21:00+6se3996100 10.7 10051073
9 may, sun
sun900:00+6e2798100 6.4 1003514
03:00+6nnw3599100 9.6 1002285
06:00+4nw51097100 4.3 1003710
09:00+2nw51498100 14.4 1006626
12:00+4nw61191100 1.9 1010896
15:00+6nw61282100 2.1 10131239
18:00+7nnw496747 0.0 1016942
21:00+3wnw22845 0.0 101926
10 may, mon
mon1000:00+2wnw28924 0.0 1021161
03:00+1wnw24900 0.0 102568
06:00+3w23759 0.0 102685
09:00+9sw355296 0.0 1027609
12:00+11ssw4746100 0.0 10271126
15:00+13sw584996 0.0 10271759
18:00+9ssw3117196 0.0 1027480
21:00+6ssw3883100 0.0 1029177
11 may, tue
tue1100:00+6ssw399029 0.0 1029164
03:00+5ssw279545 0.0 1030117
06:00+8ssw278742 0.0 1030161
09:00+15sw35655 0.0 1030452
12:00+17sw455677 0.0 1030889
15:00+18sw4554100 0.0 1030952
18:00+17ssw366688 0.0 1029417
21:00+11ssw24850 0.0 102951
12 may, wed
wed1200:00+10s22906 0.0 103042
03:00+9s22941 0.0 103130
06:00+11s24850 0.0 1031118
09:00+17sse34605 0.0 1030635
12:00+20sse34470 0.0 10301224
15:00+21se34450 0.0 10281451
18:00+20sse25560 0.0 1028574
21:00+13s22841 0.0 102811